Regional Weather Roundup
Issued by NWS

Home | Current Version | Previous Version | Text Only | Print | Product List | Glossary On
Versions: 1 2 3 4 5 6 7 8 9 10 11 12 13 14 15 16 17 18 19 20 21 22 23 24 25 26 27 28 29 30 31 32 33 34 35 36 37 38 39 40 41 42 43 44 45 46 47 48 49 50
000
ASUS43 KOAX 231410
RWRNE

WEATHER ROUNDUP FOR NEBRASKA
NATIONAL WEATHER SERVICE OMAHA NE
900 AM CDT SAT MAY 23 2015

NOTES: SATELLITE DATA IS BEING USED TO AUGMENT CLOUD COVER ABOVE
       12000 FEET.
       "FAIR" INDICATES FEW OR NO CLOUDS BELOW 12,000 FEET WITH NO
       SIGNIFICANT WEATHER AND/OR OBSTRUCTIONS TO VISIBILITY.

  * THESE STATIONS DO NOT REPORT WEATHER SUCH AS RAIN...SNOW OR FOG.

NEZ001>004-019>022-054>056-231500-
NEBRASKA PANHANDLE

CITY           SKY/WX    TMP DP  RH WIND       PRES   REMARKS
SCOTTSBLUFF    CLOUDY    48  48 100 SE9       30.03R FOG
ALLIANCE       CLOUDY    50  50 100 SE9       30.03F
CHADRON        CLOUDY    52  47  83 E10       30.04S
KIMBALL          N/A    N/A N/A N/A MISG        N/A
SIDNEY         FOG       50  50 100 SE7       30.03F VSB 3/4
$$

NEZ057>060-069>072-079>082-231500-
SOUTHWEST NEBRASKA

CITY           SKY/WX    TMP DP  RH WIND       PRES   REMARKS
NORTH PLATTE   CLOUDY    53  52  96 SE7       30.07S
IMPERIAL       CLOUDY    53  51  93 SE16G23   30.03F FOG
LEXINGTON      CLOUDY    55  54  97 SE9       30.10F FOG
MCCOOK         CLOUDY    54  53  97 SE9G18    30.05S
OGALLALA       CLOUDY    53  52  97 SE8       30.04F
$$

NEZ005>010-023>029-035>040-094-231500-
NORTH CENTRAL NEBRASKA

CITY           SKY/WX    TMP DP  RH WIND       PRES   REMARKS
VALENTINE      CLOUDY    52  51  97 SE7       30.10R FOG
AINSWORTH      CLOUDY    54  54 100 SE8       30.11R FOG
BROKEN BOW       N/A     53  52  96 SE10      30.12R FOG
O`NEILL        CLOUDY    56  52  87 SE7       30.14R
ORD            CLOUDY    53  50  89 S10       30.15R
THEDFORD       CLOUDY    54  54  98 SE12G18   30.10R FOG
$$

NEZ041-046>049-061>064-073>077-083>087-231500-
SOUTH CENTRAL NEBRASKA

CITY           SKY/WX    TMP DP  RH WIND       PRES   REMARKS
GRAND ISLAND   CLOUDY    54  51  90 SE12      30.15R
AURORA         CLOUDY    55  53  94 SE17      30.15R
HASTINGS       CLOUDY    53  52  96 S12G21    30.12S
HEBRON         CLOUDY    56  52  87 SE12      30.16F
HOLDREGE       CLOUDY    53  52  96 SE13      30.09F FOG
KEARNEY *      CLOUDY    54  52  94 SE8       30.12F
YORK           CLOUDY    55  54  94 S10       30.17R
$$

NEZ011>018-030>034-042>045-231500-
NORTHEAST NEBRASKA

CITY           SKY/WX    TMP DP  RH WIND       PRES   REMARKS
NORFOLK        CLOUDY    56  52  86 SE8       30.16R
ALBION         CLOUDY    55  50  84 SE13      30.16R
BLAIR          PTSUNNY   59  51  75 S9        30.20R
COLUMBUS *     CLOUDY    55  46  71 SE9       30.20R
FREMONT        CLOUDY    60  52  75 SE10      30.19R
TEKAMAH        CLOUDY    61  52  72 SE13      30.18F
WAYNE          CLOUDY    56  53  88 SE8       30.19R
$$

NEZ050>053-065>068-078-088>093-231500-
SOUTHEAST NEBRASKA

CITY           SKY/WX    TMP DP  RH WIND       PRES   REMARKS
LINCOLN        CLOUDY    58  53  84 SE10      30.20R
OMAHA EPPLEY   PTSUNNY   61  54  77 SE13      30.20F
BEATRICE       CLOUDY    56  54  91 S8        30.19R
FALLS CITY     CLOUDY    58  56  93 E10       30.20S
NEBRASKA CITY  DRIZZLE   56  55  99 SE9       30.20R
PLATTSMOUTH    CLOUDY    58  53  83 SE9       30.20R
$$

NEZ044-045-051>053-067-231500-
OMAHA AREA

CITY           SKY/WX    TMP DP  RH WIND       PRES   REMARKS
OMAHA EPPLEY   PTSUNNY   61  54  77 SE13      30.20F
BLAIR          PTSUNNY   59  51  75 S9        30.20R
FREMONT        CLOUDY    60  52  75 SE10      30.19R
MILLARD        CLOUDY    58  55  87 NE7       30.19R
OFFUTT AFB     PTSUNNY   59  54  83 SE9       30.20R
PLATTSMOUTH    CLOUDY    58  53  83 SE9       30.20R
WAHOO          CLOUDY    58  53  84 SE10      30.19R
$$



USA.gov is the U.S. government's official web portal to all federal, state and local government web resources and services.